TimeCDT,TemperatureF,Dew PointF,Humidity,Sea Level PressureIn,VisibilityMPH,Wind Direction,Wind SpeedMPH,Gust SpeedMPH,PrecipitationIn,Events,Conditions,WindDirDegrees,DateUTC
12:15 AM,48.2,46.8,95,30.01,7.0,East,3.5,-,N/A,,Clear,100,2013-09-26 05:15:00
12:35 AM,48.2,47.1,96,30.02,5.0,ESE,4.6,-,N/A,,Clear,120,2013-09-26 05:35:00
12:55 AM,48.4,47.3,96,30.02,5.0,ESE,4.6,-,N/A,,Clear,120,2013-09-26 05:55:00
1:15 AM,48.2,47.5,97,30.02,5.0,ESE,3.5,-,N/A,,Clear,120,2013-09-26 06:15:00
1:35 AM,48.2,47.3,97,30.03,5.0,SE,3.5,-,N/A,,Clear,130,2013-09-26 06:35:00
1:55 AM,47.8,46.9,97,30.03,4.0,SE,3.5,-,N/A,,Clear,130,2013-09-26 06:55:00
2:15 AM,47.3,46.6,97,30.03,4.0,Calm,Calm,-,N/A,,Clear,0,2013-09-26 07:15:00
2:35 AM,46.9,46.4,98,30.03,4.0,SE,3.5,-,N/A,,Clear,130,2013-09-26 07:35:00
2:55 AM,45.5,45.1,99,30.03,2.0,SE,3.5,-,N/A,,Clear,130,2013-09-26 07:55:00
3:15 AM,44.8,44.6,99,30.04,2.0,ESE,3.5,-,N/A,,Clear,120,2013-09-26 08:15:00
3:35 AM,46.2,45.9,99,30.04,3.0,ESE,3.5,-,N/A,,Clear,110,2013-09-26 08:35:00
3:55 AM,46.4,45.5,97,30.04,5.0,ESE,3.5,-,N/A,,Clear,110,2013-09-26 08:55:00
4:15 AM,46.6,45.7,97,30.04,5.0,ESE,3.5,-,N/A,,Clear,120,2013-09-26 09:15:00
4:35 AM,46.4,45.3,96,30.05,5.0,ESE,3.5,-,N/A,,Clear,120,2013-09-26 09:35:00
4:55 AM,47.1,45.7,95,30.04,7.0,ESE,6.9,-,N/A,,Clear,110,2013-09-26 09:55:00
5:15 AM,46.6,45.5,96,30.04,7.0,ESE,5.8,-,N/A,,Clear,120,2013-09-26 10:15:00
5:35 AM,46.4,45.5,97,30.04,5.0,ESE,5.8,-,N/A,,Clear,120,2013-09-26 10:35:00
5:55 AM,45.9,45.0,97,30.05,5.0,SE,5.8,-,N/A,,Clear,130,2013-09-26 10:55:00
6:15 AM,45.7,44.8,97,30.05,5.0,ESE,3.5,-,N/A,,Clear,120,2013-09-26 11:15:00
6:35 AM,45.1,44.6,98,30.05,4.0,ESE,4.6,-,N/A,,Clear,120,2013-09-26 11:35:00
6:55 AM,45.1,44.6,98,30.05,2.5,ESE,5.8,-,N/A,,Clear,120,2013-09-26 11:55:00
7:15 AM,45.0,44.6,99,30.05,2.0,ESE,5.8,-,N/A,,Clear,110,2013-09-26 12:15:00
7:35 AM,45.3,44.8,98,30.05,1.8,ESE,6.9,-,N/A,,Mist,120,2013-09-26 12:35:00
7:55 AM,46.4,45.3,96,30.06,3.0,SE,6.9,-,N/A,,Clear,130,2013-09-26 12:55:00
8:15 AM,47.1,45.7,95,30.06,4.0,SE,4.6,-,N/A,,Clear,130,2013-09-26 13:15:00
8:35 AM,47.8,46.4,95,30.06,4.0,SE,5.8,-,N/A,,Clear,130,2013-09-26 13:35:00
8:55 AM,49.1,47.1,93,30.06,5.0,SE,5.8,-,N/A,,Clear,130,2013-09-26 13:55:00
9:15 AM,50.5,47.8,90,30.06,7.0,SE,8.1,-,N/A,,Clear,130,2013-09-26 14:15:00
9:35 AM,53.2,49.3,86,30.07,10.0,SE,10.4,-,N/A,,Clear,140,2013-09-26 14:35:00
9:55 AM,55.4,50.7,84,30.07,10.0,SE,8.1,-,N/A,,Clear,140,2013-09-26 14:55:00
10:15 AM,57.2,51.8,82,30.07,10.0,SSE,9.2,-,N/A,,Scattered Clouds,150,2013-09-26 15:15:00
10:35 AM,58.8,52.2,79,30.08,10.0,SSE,10.4,18.4,N/A,,Scattered Clouds,160,2013-09-26 15:35:00
10:55 AM,59.4,52.0,77,30.08,10.0,SSE,12.7,-,N/A,,Scattered Clouds,160,2013-09-26 15:55:00
11:15 AM,59.9,52.0,75,30.08,10.0,SE,9.2,16.1,N/A,,Scattered Clouds,140,2013-09-26 16:15:00
11:35 AM,61.5,52.7,73,30.07,10.0,SSE,9.2,-,N/A,,Scattered Clouds,150,2013-09-26 16:35:00
11:55 AM,61.5,51.8,70,30.07,10.0,SSE,12.7,17.3,N/A,,Scattered Clouds,160,2013-09-26 16:55:00
12:15 PM,61.2,52.2,72,30.07,10.0,SSE,8.1,-,N/A,,Scattered Clouds,150,2013-09-26 17:15:00
12:35 PM,62.2,52.5,70,30.07,10.0,SE,10.4,16.1,N/A,,Scattered Clouds,140,2013-09-26 17:35:00
12:55 PM,63.7,52.2,66,30.06,10.0,ESE,6.9,-,N/A,,Clear,120,2013-09-26 17:55:00
1:15 PM,65.1,52.0,62,30.06,10.0,SE,9.2,16.1,N/A,,Clear,140,2013-09-26 18:15:00
1:35 PM,66.4,50.5,57,30.05,10.0,SSE,10.4,-,N/A,,Clear,150,2013-09-26 18:35:00
1:55 PM,67.1,50.7,56,30.05,10.0,South,13.8,-,N/A,,Clear,170,2013-09-26 18:55:00
2:15 PM,67.8,52.0,57,30.05,10.0,SE,9.2,-,N/A,,Clear,140,2013-09-26 19:15:00
2:35 PM,69.1,52.5,55,30.04,10.0,SE,8.1,-,N/A,,Clear,130,2013-09-26 19:35:00
3:15 PM,69.4,50.7,51,30.03,10.0,SSE,9.2,-,N/A,,Clear,150,2013-09-26 20:15:00
3:35 PM,70.2,49.8,48,30.03,10.0,SE,8.1,-,N/A,,Clear,140,2013-09-26 20:35:00
3:55 PM,70.3,49.5,47,30.03,10.0,SSE,11.5,18.4,N/A,,Clear,150,2013-09-26 20:55:00
4:15 PM,70.3,48.7,46,30.03,10.0,SSE,9.2,18.4,N/A,,Clear,160,2013-09-26 21:15:00
4:35 PM,70.2,50.0,49,30.03,10.0,SE,8.1,-,N/A,,Clear,130,2013-09-26 21:35:00
4:55 PM,69.8,50.5,50,30.03,10.0,SE,6.9,-,N/A,,Clear,130,2013-09-26 21:55:00
5:15 PM,69.4,50.2,50,30.03,10.0,SE,10.4,-,N/A,,Clear,140,2013-09-26 22:15:00
5:35 PM,68.9,50.0,51,30.03,10.0,SE,6.9,-,N/A,,Clear,140,2013-09-26 22:35:00
5:55 PM,68.0,50.2,53,30.03,10.0,SSE,4.6,-,N/A,,Clear,150,2013-09-26 22:55:00
6:15 PM,66.4,50.7,57,30.03,10.0,SE,4.6,-,N/A,,Clear,130,2013-09-26 23:15:00
6:35 PM,64.6,51.3,62,30.03,10.0,ESE,5.8,-,N/A,,Clear,120,2013-09-26 23:35:00
6:55 PM,62.6,52.5,70,30.03,10.0,ESE,4.6,-,N/A,,Clear,110,2013-09-26 23:55:00
7:15 PM,61.7,53.6,75,30.03,10.0,ESE,6.9,-,N/A,,Clear,110,2013-09-27 00:15:00
7:35 PM,61.5,53.2,74,30.02,10.0,ESE,5.8,-,N/A,,Clear,120,2013-09-27 00:35:00
7:55 PM,61.2,52.7,74,30.03,10.0,SE,5.8,-,N/A,,Clear,130,2013-09-27 00:55:00
8:15 PM,60.6,52.3,74,30.04,10.0,SE,4.6,-,N/A,,Clear,130,2013-09-27 01:15:00
8:35 PM,60.3,52.2,75,30.04,10.0,SE,5.8,-,N/A,,Clear,130,2013-09-27 01:35:00
8:55 PM,59.4,52.0,77,30.04,10.0,ESE,5.8,-,N/A,,Clear,120,2013-09-27 01:55:00
9:15 PM,58.3,51.8,79,30.05,10.0,ESE,4.6,-,N/A,,Clear,120,2013-09-27 02:15:00
9:35 PM,58.1,51.4,78,30.05,10.0,ESE,6.9,-,N/A,,Clear,120,2013-09-27 02:35:00
9:55 PM,58.3,51.1,77,30.05,10.0,SE,6.9,-,N/A,,Clear,130,2013-09-27 02:55:00
10:15 PM,58.6,51.4,77,30.05,10.0,SE,8.1,-,N/A,,Clear,130,2013-09-27 03:15:00
10:35 PM,58.1,51.8,80,30.05,10.0,SE,8.1,-,N/A,,Clear,140,2013-09-27 03:35:00
10:55 PM,57.9,51.8,80,30.05,10.0,SE,6.9,-,N/A,,Clear,130,2013-09-27 03:55:00
11:15 PM,57.6,51.8,81,30.05,10.0,SE,8.1,-,N/A,,Clear,130,2013-09-27 04:15:00
11:35 PM,57.2,52.0,83,30.06,10.0,SE,6.9,-,N/A,,Clear,140,2013-09-27 04:35:00
11:55 PM,56.8,51.8,83,30.06,10.0,SE,8.1,-,N/A,,Clear,140,2013-09-27 04:55:00